Lincolnton, NC

1:43 PM EDT on March 25, 2017 (GMT -0400)
Lincolnton-Lincoln County Regional

Weather History for KIPJ - February, 2014

Change the Weather History Date:

Wednesday, February 12, 2014

  Actual Average (KCLT) Record (KCLT)
Temperature  
Mean Temperature 25 °F -  
Max Temperature 28 °F 53 °F 80 °F (2017)
Min Temperature 22 °F 31 °F 11 °F (1899)
Degree Days  
Heating Degree Days 40    
Moisture  
Dew Point 18 °F    
Average Humidity 74    
Maximum Humidity 94    
Minimum Humidity 50    
Precipitation  
Precipitation 0.31 in - - ()
Sea Level Pressure  
Sea Level Pressure 30.19 in    
Wind  
Wind Speed 6 mph (NE)    
Max Wind Speed 15 mph    
Max Gust Speed 21 mph    
Visibility 6 miles    
Events Snow    
Averages and records for this station are not official NWS values.
T = Trace of Precipitation, MM = Missing Value Source: NWS Daily Summary

Daily Weather History Graph

Daily Weather History Graph

Search for Another Location

Airport or City:

Trip Planner

Search our weather history database for the weather conditions in past years. The results will help you decide how hot, cold, wet, or windy it might be!

Date:

Astronomy

Feb. 12, 2014 Rise Set
Actual Time 7:14 AM EST 6:03 PM EST
Civil Twilight 6:48 AM EST 6:30 PM EST
Nautical Twilight 6:18 AM EST 6:59 PM EST
Astronomical Twilight 5:48 AM EST 7:29 PM EST
Moon 4:17 PM EST (2/12) 5:28 AM EST (2/12)
Length of Visible Light 11h 41m
Length of Day
10h 49m
Waxing Gibbous, 95% of the Moon is Illuminated
Feb 12
Waxing Gibbous
Feb 14
Full
Feb 22
Last Quarter
Mar 1
New
Mar 8
First Quarter

Hourly Weather History & Observations

Time (EST) Temp. Windchill Dew Point Humidity Pressure Visibility Wind Dir Wind Speed Gust Speed Precip Events Conditions
12:15 AM 26.6 °F - 23.9 °F 90% 30.33 in 10.0 mi Calm Calm - N/A   Clear
12:35 AM 27.1 °F 23.2 °F 23.7 °F 87% 30.34 in 10.0 mi NE 3.5 mph - N/A   Clear
12:55 AM 27.5 °F 22.2 °F 23.0 °F 83% 30.34 in 10.0 mi NE 4.6 mph - N/A   Clear
1:15 AM 28.2 °F 23.1 °F 21.9 °F 77% 30.33 in 10.0 mi ENE 4.6 mph - N/A   Clear
1:35 AM 27.9 °F 24.0 °F 21.0 °F 75% 30.34 in 10.0 mi NNE 3.5 mph - N/A   Clear
1:55 AM 28.4 °F 23.3 °F 20.1 °F 71% 30.35 in 10.0 mi ENE 4.6 mph - N/A   Clear
2:15 AM 28.6 °F 23.5 °F 19.2 °F 68% 30.35 in 10.0 mi East 4.6 mph - N/A   Clear
2:35 AM 28.8 °F 23.7 °F 18.0 °F 64% 30.36 in 10.0 mi ENE 4.6 mph - N/A   Clear
2:55 AM 28.8 °F 23.7 °F 16.9 °F 61% 30.35 in 10.0 mi NE 4.6 mph - N/A   Clear
3:15 AM 28.6 °F 22.4 °F 16.5 °F 61% 30.35 in 10.0 mi ENE 5.8 mph - N/A   Clear
3:35 AM 28.9 °F 22.8 °F 15.8 °F 58% 30.35 in 10.0 mi NE 5.8 mph - N/A   Clear
3:55 AM 28.6 °F 22.4 °F 15.8 °F 59% 30.35 in 10.0 mi ENE 5.8 mph - N/A   Scattered Clouds
4:15 AM 28.4 °F 24.6 °F 15.1 °F 57% 30.34 in 10.0 mi ENE 3.5 mph - N/A   Scattered Clouds
4:35 AM 28.2 °F 21.0 °F 14.9 °F 57% 30.33 in 10.0 mi NE 6.9 mph - N/A   Clear
4:55 AM 28.2 °F 22.0 °F 14.7 °F 57% 30.34 in 10.0 mi NE 5.8 mph - N/A   Scattered Clouds
5:15 AM 27.9 °F 21.5 °F 14.9 °F 58% 30.33 in 10.0 mi ENE 5.8 mph - N/A   Mostly Cloudy
5:35 AM 27.9 °F 21.5 °F 15.1 °F 59% 30.33 in 10.0 mi NE 5.8 mph - N/A   Mostly Cloudy
5:55 AM 27.9 °F 21.5 °F 14.7 °F 58% 30.34 in 10.0 mi NE 5.8 mph - N/A   Overcast
6:15 AM 28.0 °F 21.7 °F 14.4 °F 57% 30.33 in 10.0 mi NE 5.8 mph - N/A   Overcast
6:35 AM 27.9 °F 19.1 °F 13.8 °F 56% 30.33 in 10.0 mi NE 9.2 mph - N/A   Overcast
6:55 AM 27.7 °F 19.6 °F 13.6 °F 56% 30.34 in 10.0 mi ENE 8.1 mph - N/A   Overcast
7:15 AM 27.5 °F 20.2 °F 13.8 °F 56% 30.34 in 10.0 mi ENE 6.9 mph - N/A   Overcast
7:35 AM 27.5 °F 20.2 °F 13.5 °F 56% 30.34 in 10.0 mi NE 6.9 mph - N/A   Overcast
7:55 AM 27.5 °F 21.1 °F 12.9 °F 54% 30.36 in 10.0 mi ENE 5.8 mph - N/A   Overcast
8:15 AM 27.5 °F 20.2 °F 12.9 °F 54% 30.36 in 10.0 mi NE 6.9 mph - N/A   Overcast
8:35 AM 27.7 °F 20.4 °F 12.9 °F 54% 30.36 in 10.0 mi ENE 6.9 mph - N/A   Overcast
8:55 AM 27.9 °F 20.6 °F 12.7 °F 53% 30.37 in 10.0 mi NE 6.9 mph - N/A   Overcast
9:15 AM 27.9 °F 19.1 °F 12.2 °F 52% 30.37 in 10.0 mi NE 9.2 mph - N/A   Overcast
9:35 AM 28.0 °F 19.3 °F 12.6 °F 52% 30.37 in 10.0 mi NE 9.2 mph - N/A   Overcast
9:55 AM 27.5 °F 17.4 °F 11.5 °F 51% 30.36 in 10.0 mi NE 11.5 mph - N/A   Overcast
10:15 AM 27.9 °F 19.1 °F 11.5 °F 50% 30.35 in 10.0 mi NE 9.2 mph - N/A   Overcast
10:35 AM 27.5 °F 20.2 °F 11.7 °F 51% 30.33 in 10.0 mi ENE 6.9 mph 17.3 mph N/A   Overcast
10:55 AM 27.7 °F 17.1 °F 12.2 °F 52% 30.32 in 10.0 mi NE 12.7 mph 18.4 mph N/A   Overcast
11:15 AM 27.9 °F 18.4 °F 12.4 °F 52% 30.30 in 10.0 mi ENE 10.4 mph - N/A   Overcast
11:35 AM 27.9 °F 16.3 °F 12.7 °F 53% 30.29 in 10.0 mi NE 15.0 mph - N/A   Overcast
11:55 AM 27.7 °F 17.6 °F 13.8 °F 56% 30.30 in 7.0 mi ENE 11.5 mph 18.4 mph N/A   Overcast
12:15 PM 26.8 °F 15.9 °F 16.0 °F 64% 30.28 in 4.0 mi ENE 12.7 mph - N/A Snow Light Snow
12:35 PM 26.2 °F 17.1 °F 18.1 °F 71% 30.27 in 3.0 mi NE 9.2 mph 16.1 mph N/A Snow Light Snow
12:55 PM 25.3 °F 14.7 °F 19.0 °F 77% 30.27 in 1.8 mi NE 11.5 mph - N/A Snow Light Snow
1:15 PM 24.6 °F 15.1 °F 20.1 °F 83% 30.24 in 1.8 mi NE 9.2 mph 17.3 mph N/A Snow Light Snow
1:35 PM 24.4 °F 14.9 °F 20.3 °F 84% 30.22 in 1.2 mi ENE 9.2 mph - N/A Snow Light Snow
1:55 PM 23.9 °F 15.0 °F 20.7 °F 87% 30.21 in 0.8 mi NE 8.1 mph - N/A Snow Light Snow
2:15 PM 23.7 °F 14.7 °F 20.7 °F 88% 30.19 in 0.5 mi NE 8.1 mph - 0.01 in Snow Light Snow
2:35 PM 23.7 °F 12.1 °F 20.3 °F 87% 30.18 in 0.5 mi NE 12.7 mph 18.4 mph 0.01 in Snow Snow
2:55 PM 23.0 °F 10.6 °F 19.8 °F 87% 30.16 in 0.8 mi NE 13.8 mph 20.7 mph 0.01 in Snow Light Snow
3:15 PM 23.5 °F 12.4 °F 19.4 °F 84% 30.13 in 1.8 mi NNE 11.5 mph 19.6 mph 0.01 in Snow Light Snow
3:35 PM 23.4 °F 12.2 °F 18.5 °F 82% 30.13 in 5.0 mi NE 11.5 mph 18.4 mph 0.01 in Snow Light Snow
3:55 PM 23.0 °F 10.6 °F 18.5 °F 83% 30.11 in 5.0 mi NE 13.8 mph 19.6 mph 0.02 in Snow Light Snow
4:15 PM 23.0 °F 10.6 °F 18.3 °F 82% 30.09 in 5.0 mi NE 13.8 mph 18.4 mph 0.01 in Snow Light Snow
4:35 PM 23.0 °F 11.1 °F 18.7 °F 84% 30.08 in 4.0 mi NNE 12.7 mph 17.3 mph 0.01 in Snow Light Snow
4:55 PM 23.4 °F 12.8 °F 19.4 °F 85% 30.06 in 3.0 mi NE 10.4 mph 17.3 mph 0.02 in Snow Light Snow
5:15 PM 23.0 °F 13.1 °F 19.4 °F 86% 30.07 in 3.0 mi NE 9.2 mph 18.4 mph 0.01 in Snow Light Snow
5:35 PM 23.0 °F 13.1 °F 19.0 °F 85% 30.06 in 4.0 mi NNE 9.2 mph - 0.02 in Snow Light Snow
5:55 PM 23.0 °F 11.7 °F 19.4 °F 86% 30.04 in 2.5 mi NE 11.5 mph 16.1 mph 0.04 in Snow Light Snow
6:15 PM 23.0 °F 13.9 °F 19.4 °F 86% 30.04 in 2.5 mi NE 8.1 mph 16.1 mph 0.01 in Snow Light Snow
6:35 PM 22.6 °F 13.4 °F 19.4 °F 87% 30.02 in 3.0 mi NNE 8.1 mph - 0.02 in Snow Light Snow
6:55 PM 22.6 °F 11.3 °F 19.4 °F 87% 30.01 in 3.0 mi NNE 11.5 mph 16.1 mph 0.03 in Snow Light Snow
7:15 PM 22.6 °F 12.6 °F 19.6 °F 88% 29.99 in 2.5 mi North 9.2 mph 19.6 mph 0.01 in Snow Light Snow
7:35 PM 22.6 °F 15.3 °F 20.1 °F 90% 29.97 in 2.0 mi NNE 5.8 mph - 0.02 in Snow Light Snow
7:55 PM 23.0 °F 13.1 °F 20.3 °F 89% 29.96 in 3.0 mi NE 9.2 mph - 0.03 in Snow Light Snow
8:15 PM 23.0 °F 13.1 °F 20.8 °F 91% 29.96 in 2.5 mi NE 9.2 mph - 0.01 in Snow Light Snow
8:35 PM 23.0 °F 14.7 °F 21.2 °F 93% 29.95 in 2.5 mi NE 6.9 mph - 0.01 in Snow Light Snow
8:55 PM 23.7 °F 17.8 °F 22.1 °F 94% 29.94 in 3.0 mi North 4.6 mph - 0.01 in Snow Light Snow
9:15 PM 24.1 °F 18.2 °F 22.6 °F 94% 29.93 in 3.0 mi NNE 4.6 mph - N/A Snow Light Snow
9:35 PM 24.4 °F 14.9 °F 23.0 °F 94% 29.90 in 3.0 mi NE 9.2 mph - 0.01 in Snow Light Snow
9:55 PM 24.8 °F 19.1 °F 23.2 °F 94% 29.91 in 2.5 mi North 4.6 mph - 0.04 in Snow Light Snow
10:15 PM 25.3 °F 16.0 °F 23.5 °F 93% 29.89 in 2.5 mi NE 9.2 mph - 0.03 in Snow Light Snow
10:35 PM 25.3 °F 17.6 °F 23.7 °F 94% 29.87 in 2.5 mi NNE 6.9 mph - 0.06 in Snow Light Snow
10:55 PM 25.3 °F 17.6 °F 23.9 °F 94% 29.88 in 1.8 mi North 6.9 mph - 0.09 in Snow Light Snow
11:15 PM 25.3 °F 16.7 °F 23.9 °F 94% 29.85 in 2.0 mi NNE 8.1 mph - 0.01 in Snow Light Snow
11:35 PM 25.2 °F 15.1 °F 23.7 °F 94% 29.83 in 2.5 mi NNE 10.4 mph - 0.01 in Snow Light Snow
11:55 PM 25.7 °F 19.0 °F 23.7 °F 92% 29.81 in 4.0 mi North 5.8 mph 16.1 mph 0.02 in Snow Light Snow